Regional Weather Roundup
Issued by NWS

Home | Current Version | Previous Version | Graphics & Text | Print | Product List | Glossary On
Versions: 1 2 3 4 5 6 7 8 9 10 11 12 13 14 15 16 17 18 19 20 21 22 23 24 25 26 27 28 29 30 31 32 33 34 35 36 37 38 39 40 41 42 43 44 45 46 47 48 49 50
000
ASUS43 KFSD 230910
RWRSD

WEATHER ROUNDUP FOR SOUTH DAKOTA
NATIONAL WEATHER SERVICE SIOUX FALLS SD
400 AM CDT WED MAY 23 2018

NOTE: "FAIR" INDICATES FEW OR NO CLOUDS BELOW 12,000 FEET WITH NO
SIGNIFICANT WEATHER AND/OR OBSTRUCTIONS TO VISIBILITY.


SDZ001>005-009-010-012>017-231000-
NORTHWEST AND NORTH CENTRAL SOUTH DAKOTA

CITY           SKY/WX    TMP DP  RH WIND       PRES   REMARKS
BUFFALO          N/A     61  56  83 E8        29.87R
FAITH            N/A     61  59  93 SE15      29.89F
MOBRIDGE       CLOUDY    67  62  84 SE8       29.95R
$$

SDZ012>016-024>037-041>051-057-063-072>074-231000-
SOUTHWEST AND SOUTH CENTRAL SOUTH DAKOTA

CITY           SKY/WX    TMP DP  RH WIND       PRES   REMARKS
RAPID CTY ARPT CLOUDY    58  55  90 NE12      29.86F
PIERRE         CLOUDY    63  63 100 NE12      29.87F
CUSTER         MOCLDY    50  47  89 NE6       29.96F
ELLSWORTH AFB  PTCLDY    57  57 100 CALM      29.86F
PHILIP         CLOUDY    60  59  96 CALM      29.88R
PINE RIDGE     PTCLDY    55  55 100 CALM      29.88F
SPEARFISH      CLOUDY    59  48  67 NW8       29.89F
WINNER         FAIR      68  63  84 SE7       29.88F HAZE
$$

SDZ004>011-016>023-039-040-231000-
NORTHEAST SOUTH DAKOTA

CITY           SKY/WX    TMP DP  RH WIND       PRES   REMARKS
ABERDEEN       MOCLDY    64  59  83 E8        29.95R
WATERTOWN      CLOUDY    67  60  78 E9        29.99R
BROOKINGS      MOCLDY    67  62  84 SE15      30.00R
SISSETON         N/A     60  56  86 S3        29.99R
$$

SDZ017-020-022-023-036>040-048>070-231000-
SOUTHEAST SOUTH DAKOTA

CITY           SKY/WX    TMP DP  RH WIND       PRES   REMARKS
SIOUX FALLS    CLEAR     64  62  93 E7        29.98R
HURON          TSTM      66  63  90 W7        29.96R FOG
CHAMBERLAIN    CLOUDY    68  67  97 NE7       29.91F
MITCHELL       CLOUDY    65  63  93 E7        29.92R
YANKTON        CLEAR     65  63  93 SE3       29.95R
$$

ABBREVIATIONS USED IN REMARKS
   TC - TEMPERATURE IN CELSIUS
  WCI - WIND CHILL INDEX
   HX - HEAT INDEX
  VSB - VISIBILITY





USA.gov is the U.S. government's official web portal to all federal, state and local government web resources and services.